Voltar ao catálogo

DELTA 1 DEB

AtivoPO
NORAD 7907·DEBRIS·🇺🇸 United States

Lançado Jul 23, 1972 de Vandenberg Space Force Base

Loading…

Próximas Passagens (próximas 24 horas)

TLE

AtualizadoSource: Space-Track

Época: Sep 14, 2026, 15:13 UTC

1 07907U 72058BS  26257.63448285  .00000288  00000-0  13695-3 0  9992
2 07907  97.7112  33.1292 0267391 328.9287  29.6303 14.08561638592123

Acompanhe DELTA 1 DEB em tempo real com AllMySat

Download on the App Store